Weather History for Camden, SC

Change the Weather History Date:

Friday, February 22, 2013

  Actual Average (KSSC) Record (KSSC)
Temperature  
Mean Temperature 42 °F -  
Max Temperature 48 °F 59 °F 80 °F (2011)
Min Temperature 37 °F 36 °F 26 °F (1999)
Degree Days  
Heating Degree Days 22    
Moisture  
Dew Point 35 °F    
Average Humidity 83    
Maximum Humidity 100    
Minimum Humidity 46    
Precipitation  
Precipitation 0.51 in - - ()
Sea Level Pressure  
Sea Level Pressure 30.20 in    
Wind  
Wind Speed 7 mph (NE)    
Max Wind Speed 12 mph    
Max Gust Speed 20 mph    
Visibility 5 miles    
Events Rain    
Averages and records for this station are not official NWS values.
T = Trace of Precipitation, MM = Missing Value Source: NWS Daily Summary

Daily Weather History Graph

Daily Weather History Graph

Search for Another Location

Airport:

Trip Planner

Search our weather history database for the weather conditions in past years. The results will help you decide how hot, cold, wet, or windy it might be!

Date:

Astronomy

Feb. 22, 2013 Rise Set
Actual Time 6:59 AM EST 6:12 PM EST
Civil Twilight 6:33 AM EST 6:37 PM EST
Nautical Twilight 6:04 AM EST 7:07 PM EST
Astronomical Twilight 5:35 AM EST 7:36 PM EST
Moon 3:27 PM EST (2/22) 4:38 AM EST (2/22)
Length of Visible Light 12h 04m
Length of Day
11h 13m
Waxing Gibbous, 90% of the Moon is Illuminated
Feb 22
Waxing Gibbous
Feb 25
Full
Mar 4
Last Quarter
Mar 11
New
Mar 19
First Quarter

Hourly Weather History & Observations

Time (EST) Temp. Windchill Dew Point Humidity Pressure Visibility Wind Dir Wind Speed Gust Speed Precip Events Conditions
12:15 AM 48.2 °F - 30.2 °F 50% 30.23 in 10.0 mi Calm Calm - 0.00 in   Clear
12:35 AM 46.4 °F 45.2 °F 32.0 °F 57% 30.24 in 10.0 mi NE 3.5 mph - 0.00 in   Clear
12:55 AM 46.4 °F 44.3 °F 30.2 °F 53% 30.23 in 10.0 mi ENE 4.6 mph - 0.00 in   Mostly Cloudy
1:15 AM 48.2 °F - 30.2 °F 50% 30.22 in 10.0 mi ENE 5.8 mph - 0.00 in   Overcast
1:35 AM 46.4 °F 43.5 °F 30.2 °F 53% 30.22 in 10.0 mi ENE 5.8 mph - 0.00 in   Overcast
1:55 AM 46.4 °F 42.4 °F 30.2 °F 53% 30.22 in 10.0 mi NE 8.1 mph - 0.00 in   Overcast
2:15 AM 46.4 °F 41.9 °F 30.2 °F 53% 30.22 in 10.0 mi NE 9.2 mph - 0.00 in   Mostly Cloudy
2:35 AM 46.4 °F 41.9 °F 28.4 °F 50% 30.25 in 10.0 mi NE 9.2 mph - 0.00 in   Mostly Cloudy
2:55 AM 46.4 °F 41.5 °F 28.4 °F 50% 30.27 in 10.0 mi NE 10.4 mph - 0.00 in   Overcast
3:15 AM 46.4 °F 41.9 °F 28.4 °F 50% 30.26 in 10.0 mi NE 9.2 mph - 0.00 in   Overcast
3:35 AM 46.4 °F 41.5 °F 28.4 °F 50% 30.24 in 10.0 mi NE 10.4 mph - 0.00 in   Scattered Clouds
3:55 AM 46.4 °F 41.9 °F 28.4 °F 50% 30.25 in 10.0 mi ENE 9.2 mph - 0.00 in   Partly Cloudy
4:15 AM 46.4 °F 41.9 °F 26.6 °F 46% 30.24 in 10.0 mi ENE 9.2 mph - 0.00 in   Mostly Cloudy
4:35 AM 46.4 °F 43.5 °F 26.6 °F 46% 30.25 in 10.0 mi East 5.8 mph - 0.00 in   Mostly Cloudy
4:55 AM 46.4 °F 41.9 °F 26.6 °F 46% 30.24 in 10.0 mi East 9.2 mph - 0.00 in   Mostly Cloudy
5:15 AM 44.6 °F 39.7 °F 26.6 °F 49% 30.24 in 10.0 mi ENE 9.2 mph - 0.00 in   Mostly Cloudy
5:35 AM 44.6 °F 40.7 °F 28.4 °F 53% 30.26 in 10.0 mi ENE 6.9 mph - 0.00 in   Light Drizzle
5:55 AM 42.8 °F 37.5 °F 30.2 °F 61% 30.24 in 9.0 mi East 9.2 mph - 0.01 in Rain Light Rain
6:15 AM 42.8 °F 37.0 °F 32.0 °F 66% 30.22 in 5.0 mi East 10.4 mph - 0.01 in Rain Light Rain
6:35 AM 39.2 °F 35.0 °F 33.8 °F 81% 30.22 in 4.0 mi East 5.8 mph - 0.07 in Rain Rain
6:55 AM 39.2 °F 35.9 °F 33.8 °F 81% 30.24 in 5.0 mi ENE 4.6 mph - 0.11 in Rain Light Rain
7:15 AM 39.2 °F 35.0 °F 35.6 °F 87% 30.23 in 7.0 mi East 5.8 mph - 0.01 in Rain Light Rain
7:35 AM 39.2 °F 35.9 °F 35.6 °F 87% 30.24 in 7.0 mi ENE 4.6 mph - 0.02 in Rain Light Rain
8:15 AM 39.2 °F 34.2 °F 35.6 °F 87% 30.25 in 7.0 mi ENE 6.9 mph - 0.00 in Rain Light Rain
8:35 AM 37.4 °F 32.1 °F 35.6 °F 93% 30.26 in 4.0 mi ENE 6.9 mph - 0.05 in Rain Rain
8:55 AM 37.4 °F 30.8 °F 35.6 °F 93% 30.26 in 3.0 mi East 9.2 mph - 0.08 in Rain Rain
9:15 AM 37.4 °F 30.3 °F 35.6 °F 93% 30.24 in 4.0 mi East 10.4 mph - 0.01 in   Mostly Cloudy
9:35 AM 39.2 °F 32.5 °F 33.8 °F 81% 30.24 in 10.0 mi East 10.4 mph 19.6 mph 0.01 in   Mostly Cloudy
9:55 AM 39.2 °F 33.6 °F 35.6 °F 87% 30.24 in 10.0 mi ENE 8.1 mph - 0.01 in   Overcast
10:15 AM 39.2 °F 34.2 °F 35.6 °F 87% 30.24 in 8.0 mi ENE 6.9 mph - 0.00 in Rain Light Rain
10:35 AM 39.2 °F 33.0 °F 35.6 °F 87% 30.24 in 5.0 mi ENE 9.2 mph - 0.01 in   Overcast
11:15 AM 39.2 °F 34.2 °F 35.6 °F 87% 30.24 in 9.0 mi ENE 6.9 mph - 0.00 in   Overcast
11:35 AM 39.2 °F 34.2 °F 35.6 °F 87% 30.24 in 2.5 mi ENE 6.9 mph - 0.00 in Rain Light Rain
11:55 AM 39.2 °F 35.0 °F 37.4 °F 93% 30.24 in 7.0 mi NE 5.8 mph - 0.01 in   Light Drizzle
12:15 PM 39.2 °F 32.5 °F 35.6 °F 87% 30.24 in 5.0 mi ENE 10.4 mph - 0.00 in Rain Light Rain
12:35 PM 39.2 °F 35.0 °F 35.6 °F 87% 30.23 in 5.0 mi NE 5.8 mph - 0.01 in Rain Light Rain
12:55 PM 39.2 °F 33.6 °F 37.4 °F 93% 30.22 in 2.0 mi NE 8.1 mph - 0.07 in   Overcast
1:15 PM 39.2 °F 33.6 °F 37.4 °F 93% 30.21 in 2.5 mi ENE 8.1 mph - 0.00 in Rain Light Rain
1:35 PM 39.2 °F 34.2 °F 37.4 °F 93% 30.19 in 5.0 mi ENE 6.9 mph - 0.00 in   Overcast
1:55 PM 39.2 °F 32.5 °F 37.4 °F 93% 30.18 in 2.0 mi NE 10.4 mph - 0.08 in Rain Light Rain
2:15 PM 39.2 °F 34.2 °F 37.4 °F 93% 30.18 in 3.0 mi ENE 6.9 mph - 0.00 in Rain Light Rain
2:35 PM 39.2 °F 35.0 °F 37.4 °F 93% 30.17 in 1.0 mi ENE 5.8 mph - 0.02 in Rain Light Rain
2:55 PM 39.2 °F 33.0 °F 37.4 °F 93% 30.17 in 2.0 mi NE 9.2 mph - 0.02 in   Overcast
3:15 PM 39.2 °F 35.0 °F 37.4 °F 93% 30.18 in 1.2 mi NE 5.8 mph - 0.03 in Rain Rain
3:35 PM 39.2 °F 32.5 °F 37.4 °F 93% 30.18 in 1.8 mi NNE 10.4 mph - 0.06 in Rain Light Rain
3:55 PM 39.2 °F 33.6 °F 37.4 °F 93% 30.18 in 2.0 mi NNE 8.1 mph - 0.06 in Rain Light Rain
4:15 PM 39.2 °F 33.6 °F 37.4 °F 93% 30.18 in 1.0 mi NNE 8.1 mph - 0.01 in Rain Light Rain
4:35 PM 37.4 °F 31.4 °F 37.4 °F 100% 30.17 in 1.2 mi NE 8.1 mph - 0.02 in Rain Light Rain
4:55 PM 37.4 °F 32.1 °F 37.4 °F 100% 30.17 in 2.0 mi NNE 6.9 mph - 0.03 in   Overcast
5:15 PM 37.4 °F 30.3 °F 37.4 °F 100% 30.17 in 1.5 mi NNE 10.4 mph - 0.00 in   Overcast
5:35 PM 37.4 °F 30.8 °F 37.4 °F 100% 30.16 in 3.0 mi NNE 9.2 mph - 0.00 in   Overcast
5:55 PM 37.4 °F 30.3 °F 37.4 °F 100% 30.16 in 2.0 mi NNE 10.4 mph - 0.00 in   Overcast
6:15 PM 37.4 °F 32.1 °F 37.4 °F 100% 30.17 in 2.0 mi NE 6.9 mph - 0.00 in Rain Light Rain
6:35 PM 37.4 °F 32.8 °F 37.4 °F 100% 30.16 in 3.0 mi NE 5.8 mph - 0.00 in   Overcast
6:55 PM 37.4 °F 32.1 °F 37.4 °F 100% 30.16 in 3.0 mi NNE 6.9 mph - 0.00 in   Overcast
7:15 PM 37.4 °F 32.1 °F 37.4 °F 100% 30.15 in 3.0 mi NE 6.9 mph - 0.00 in   Overcast
7:35 PM 37.4 °F 30.3 °F 37.4 °F 100% 30.15 in 4.0 mi NE 10.4 mph - 0.00 in   Overcast
7:55 PM 37.4 °F 29.8 °F 37.4 °F 100% 30.15 in 6.0 mi NE 11.5 mph - 0.00 in   Overcast
8:15 PM 37.4 °F 30.8 °F 37.4 °F 100% 30.15 in 7.0 mi ENE 9.2 mph - 0.00 in   Overcast
8:35 PM 37.4 °F 31.4 °F 37.4 °F 100% 30.16 in 5.0 mi NNE 8.1 mph - 0.00 in   Overcast
8:55 PM 37.4 °F 31.4 °F 37.4 °F 100% 30.17 in 5.0 mi NNE 8.1 mph - 0.00 in   Overcast
9:15 PM 37.4 °F 32.1 °F 37.4 °F 100% 30.16 in 4.0 mi NNE 6.9 mph - 0.00 in   Overcast
9:35 PM 37.4 °F 30.8 °F 37.4 °F 100% 30.16 in 4.0 mi NNE 9.2 mph - 0.00 in   Overcast
9:55 PM 37.4 °F 31.4 °F 37.4 °F 100% 30.16 in 2.5 mi NE 8.1 mph - 0.00 in   Overcast
10:15 PM 37.4 °F 31.4 °F 37.4 °F 100% 30.16 in 1.5 mi NNE 8.1 mph - 0.00 in   Overcast
10:35 PM 37.4 °F 31.4 °F 37.4 °F 100% 30.16 in 1.2 mi NNE 8.1 mph - 0.00 in   Overcast
10:55 PM 37.4 °F 31.4 °F 37.4 °F 100% 30.15 in 1.2 mi NNE 8.1 mph - 0.00 in   Overcast
11:15 PM 37.4 °F 30.8 °F 37.4 °F 100% 30.14 in 1.2 mi NNE 9.2 mph - 0.00 in   Overcast
11:35 PM 37.4 °F 32.8 °F 37.4 °F 100% 30.13 in 1.2 mi NE 5.8 mph - 0.00 in   Overcast
11:55 PM 37.4 °F 32.8 °F 37.4 °F 100% 30.11 in 1.0 mi NE 5.8 mph - 0.00 in   Overcast